This demonstration page uses our WeatherBlox Daily Observations layout. Learn more.

Left ArrowRight Arrow

34.74481, -87.66753

Hourly Observations for January 12, 2020

Temp ( °F °C ) Dew Point ( °F °C ) Humidity (%) Winds ( mph kmh ) Pressure ( in mb ) Visibility ( mi km ) Precip ( " mm )
12:03 am 00:03 Cloudy 49 9.4 44 6.7 83 83 NNW 5 7 30.17 1022 10 16 0.00 0.00
12:25 am 00:25 Cloudy 48 8.9 44 6.7 86 86 WNW 6 9 30.17 1022 10 16 0.00 0.00
12:53 am 00:53 Cloudy 48 8.9 43 6.1 83 83 W 8 13 30.16 1022 10 16 0.00 0.00
1:53 am 01:53 Cloudy 48 8.9 41 5 77 77 W 8 13 30.19 1022 10 16 0.00 0.00
2:53 am 02:53 Cloudy 46 7.8 40 4.4 79 79 WNW 9 15 30.21 1023 10 16 0.00 0.00
3:39 am 03:39 Partly Cloudy 44 6.7 39 3.9 83 83 WNW 8 13 30.24 1024 10 16 0.00 0.00
3:53 am 03:53 Clear 43 6.1 39 3.9 86 86 WNW 7 11 30.22 1023 10 16 0.00 0.00
4:32 am 04:32 Mostly Cloudy 43 6.1 39 3.9 86 86 WNW 7 11 30.25 1024 10 16 0.00 0.00
4:48 am 04:48 Partly Cloudy 43 6 37 3 81 81 W 7 11 30.25 1024 10 16 0.00 0.00
4:53 am 04:53 Mostly Clear 43 6.1 38 3.3 82 82 WSW 7 11 30.24 1024 10 16 0.00 0.00
5:31 am 05:31 Mostly Cloudy 42 5.6 38 3.3 85 85 W 5 7 30.28 1025 10 16 0.00 0.00
5:53 am 05:53 Cloudy 43 6.1 39 3.9 86 86 W 5 7 30.27 1025 10 16 0.00 0.00
6:53 am 06:53 Cloudy 43 6.1 39 3.9 86 86 WNW 6 9 30.29 1026 10 16 0.00 0.00
7:53 am 07:53 Cloudy 44 6.7 40 4.4 85 85 NNW 6 9 30.29 1026 10 16 0.00 0.00
8:18 am 08:18 Cloudy 45 7.2 41 5 86 86 NNW 5 7 30.31 1027 10 16 0.00 0.00
8:43 am 08:43 Cloudy 45 7.2 41 5 86 86 NW 7 11 30.32 1027 10 16 0.00 0.00
8:53 am 08:53 Cloudy 46 7.8 41 5 83 83 N 6 9 30.31 1026 10 16 0.00 0.00
9:43 am 09:43 Cloudy 47 8.3 42 5.6 83 83 WSW 3 6 30.33 1027 10 16 0.00 0.00
9:53 am 09:53 Cloudy 46 7.8 41 5 83 83 Calm 30.33 1027 10 16 0.00 0.00
10:34 am 10:34 Cloudy 47 8.3 42 5.6 83 83 Calm 30.33 1027 10 16 0.00 0.00
10:53 am 10:53 Cloudy 49 9.4 43 6.1 80 80 SSE 5 7 30.31 1026 10 16 0.00 0.00
11:53 am 11:53 Cloudy 51 10.6 43 6.1 74 74 E 7 11 30.27 1025 10 16 0.00 0.00
12:53 pm 12:53 Mostly Cloudy 53 11.7 43 6.1 69 69 S 8 13 30.24 1024 10 16 0.00 0.00
1:53 pm 13:53 Mostly Cloudy 54 12.2 44 6.7 69 69 SSW 5 7 30.22 1023 10 16 0.00 0.00
2:18 pm 14:18 Partly Cloudy 57 13.9 45 7.2 64 64 S 9 15 30.22 1023 10 16 0.00 0.00
2:53 pm 14:53 Partly Cloudy 57 13.9 45 7.2 64 64 S 5 7 30.21 1023 10 16 0.00 0.00
3:53 pm 15:53 Sunny 58 14.4 45 7.2 62 62 Calm 30.24 1024 10 16 0.00 0.00
4:53 pm 16:53 Sunny 57 13.9 45 7.2 64 64 Calm 30.24 1024 10 16 0.00 0.00
5:53 pm 17:53 Clear 51 10.6 45 7.2 80 80 NW 3 6 30.26 1025 10 16 0.00 0.00
6:53 pm 18:53 Clear 49 9.4 44 6.7 83 83 Calm 30.26 1025 10 16 0.00 0.00
7:53 pm 19:53 Clear 47 8.3 44 6.7 90 90 Calm 30.26 1025 10 16 0.00 0.00
8:53 pm 20:53 Clear 46 7.8 43 6.1 89 89 Calm 30.26 1025 10 16 0.00 0.00
9:17 pm 21:17 Clear with Mist and Fog 45 7.2 43 6.1 93 93 Calm 30.27 1025 2 3 0.00 0.00
9:35 pm 21:35 Clear with Mist and Fog 46 7.8 43 6.1 89 89 Calm 30.28 1025 3 5 0.00 0.00
9:53 pm 21:53 Clear with Mist and Fog 45 7.2 43 6.1 93 93 Calm 30.27 1025 4 6 0.00 0.00
10:08 pm 22:08 Clear with Mist and Fog 43 6.1 42 5.6 97 97 SE 3 6 30.29 1026 2 3 0.00 0.00
10:20 pm 22:20 Clear with Mist and Fog 44 6.7 41 5 89 89 Calm 30.29 1026 3 5 0.00 0.00
10:53 pm 22:53 Clear 45 7.2 43 6.1 93 93 Calm 30.28 1025 9 14 0.00 0.00
11:42 pm 23:42 Partly Cloudy with Mist and Fog 43 6.1 41 5 93 93 Calm 30.30 1026 3 5 0.00 0.00
11:45 pm 23:45 Mostly Cloudy with Mist and Fog 43 6.1 41 5 93 93 Calm 30.30 1026 2 3 0.00 0.00
11:50 pm 23:50 Mostly Cloudy with Fog 43 6 41 5 93 93 Calm 30.30 1026 1 1 0.00 0.00
11:53 pm 23:53 Mostly Cloudy with Fog 43 6.1 41 5 93 93 Calm 30.28 1026 1 1 0.00 0.00
11:58 pm 23:58 Cloudy with Mist and Fog 45 7.2 43 6.1 93 93 Calm 30.29 1026 1 2 0.00 0.00

Powered by AerisWeather